Voltar ao catálogo

COSMOS 2110

GLONASS

AtivoNavegaçãoMEO
NORAD 21007·PAYLOAD·🇷🇺 Russia

Lançado Dec 8, 1990 de Baikonur Cosmodrome

Loading…

Próximas Passagens (próximas 24 horas)

TLE

AtualizadoSource: Space-Track

Época: Sep 11, 2026, 15:17 UTC

1 21007U 90110B   26254.63727700  .00000002  00000-0  00000-0 0  9994
2 21007  64.9932  68.6077 0043038 200.4191 159.5805  2.13101425278317

Acompanhe COSMOS 2110 em tempo real com AllMySat

Download on the App Store